Location: Ferchesar
(52.6477°N, 12.4298°E)
Time: 12:34:22
(UTC+01:00)

Altair - Pass Details

Date: 13 December 2021
Orbit: 1501 x 1683 km, 47.2° (Epoch: 20 January)

Event Time Altitude Azimuth Distance (km) Brightness Sun altitude
Rises 16:41:29 0° 269° (W) 4,783 11.3 -6.6°
Reaches altitude 10° 16:44:39 10° 266° (W) 3,773 10.8 -7.0°
Maximum altitude 16:53:57 62° 189° (S) 1,696 8.0 -8.3°
Drops below altitude 10° 17:02:58 10° 112° (ESE) 3,662 9.1 -9.5°
Sets 17:05:59 0° 109° (ESE) 4,634 9.6 -9.9°
